Vertical_Velocity
-4 -2 -2 -2 -2 -2 -8 -2 -5 1 2 -6 0 0 5 1 -2 1 0 2 -1 -0 -0 -0 -1 -1 -1 0 -1 -1 1 -3 -0 -1 -0 -2 -2 -2 -3 -5 -3 0 -4 -13
-1 -3 -1 -3 -1 3 -3 -2 -3 -1 -2 -3 -1 -4 -1 1 -1 -0 -1 0 -1 -0 -1 -5 -1 0 0 1 -1 -3 -3 0 -0 -1 -3 -1 0 0 -1 -1 -2 -2 -5 -10
-0 -4 -0 -3 1 -2 0 -2 -4 -7 -1 1 1 0 -1 -2 -1 -1 0 1 -4 -3 -2 -1 -0 0 -0 0 -0 1 -5 -1 -5 -8 -6 -3 1 1 0 -4 -2 -2 -5 -3
-0 -2 -0 -4 1 -0 -5 -5 -0 2 -4 -6 -0 0 1 -0 0 -1 -1 -3 -1 -1 -1 -0 -0 0 0 -2 2 -1 -5 -2 -1 0 -0 0 -1 -1 0 -0 -2 -5 -4 -1
1 -1 -0 -3 -2 -0 -10 -1 0 -4 -1 -0 1 -1 1 1 -0 -2 -1 -4 1 -0 -2 1 -2 -3 -1 -3 -1 -1 -1 -1 -1 0 -0 0 0 0 0 -0 -0 1 1 -10
2 -1 -1 -2 -0 -3 -5 -3 0 6 -4 -2 -0 2 1 3 -0 1 2 2 -3 -4 2 2 2 0 -1 -3 -4 -0 -2 -2 -1 -2 0 -1 -2 -5 -1 -1 -0 -4 -2 -13
-2 -1 1 -2 0 -2 1 4 3 1 -3 0 3 1 3 1 2 -2 1 -3 -3 2 2 6 0 -7 -3 -3 1 -1 -1 -1 -1 -1 -3 -5 -12 -0 -2 -3 -2 0 1 -2
0 -1 0 -1 1 -0 0 -2 1 2 -1 3 -3 -4 1 -2 -0 -1 -0 1 2 2 -1 -4 -2 -3 -3 1 1 -1 -2 -1 -1 -3 -0 -8 -2 0 -3 -2 -1 -1 -2 -2
-1 2 -2 -0 0 -2 1 -2 0 1 4 -0 2 1 1 1 0 -4 -0 1 2 2 -2 -2 -1 -1 0 1 1 -0 -2 -2 -6 -1 -1 -1 -4 -0 1 -0 -3 0 -0 -0
-2 0 1 -5 1 1 -2 -1 -1 1 3 -5 -0 2 2 2 -0 -1 -0 -1 -4 0 -0 -1 -1 -1 -3 -3 -1 0 -0 1 -2 -0 -1 -8 -3 -1 1 -5 -5 -0 1 2
3 0 -1 2 -3 0 2 -1 -0 4 4 -11 -2 3 2 -2 -0 -0 -1 -5 -5 -2 -4 -2 -1 -1 -1 -2 -2 -3 -3 -3 -1 1 0 -8 -0 -0 -4 -6 -2 -2 -2 -1
-1 2 0 3 2 8 2 -4 -3 4 1 -6 1 -4 -1 2 3 2 1 -0 -0 -1 -3 -0 -0 -0 -0 -1 -1 -1 -2 -8 -7 -10 -13 -3 -0 -1 0 2 -1 -1 1 1
0 -1 -0 1 0 2 11 -2 -1 1 -2 -19 -0 -3 2 -1 -2 6 -0 1 1 1 0 -3 -1 -1 -2 -0 -2 0 -1 -0 -1 -0 -4 -2 -2 -3 1 4 -0 2 0 -1
-1 1 -1 -2 2 -1 6 -0 4 -1 -2 5 -7 3 1 1 2 1 1 -0 -0 1 1 -0 -0 -0 -1 -1 -1 -1 -5 0 -2 -3 -4 -2 1 1 -1 2 -1 0 0 -1
-2 3 -1 -2 1 2 5 -2 -1 -1 0 4 -7 -3 -0 2 1 1 1 1 3 0 0 0 -1 -0 -0 -0 -0 -0 -2 -5 -3 -6 -2 -0 -6 -1 1 -3 0 1 -1 -1
-0 2 0 0 2 5 5 -5 -0 0 5 2 1 2 -0 2 4 2 2 2 2 0 1 -1 -0 1 -2 0 -0 -4 1 1 1 -2 0 0 -1 1 2 1 2 0 -0 0
1 2 -2 -1 -4 13 -8 -3 10 1 0 2 0 -0 1 2 3 4 1 0 2 1 2 0 -0 -0 -1 1 -0 0 -0 0 -5 1 -2 1 1 -1 -0 0 0 0 -0 -0
3 -0 -0 14 2 9 4 1 -3 12 -4 7 1 -2 -1 3 1 1 1 -1 -0 1 -1 0 0 5 1 1 -1 2 -0 -1 3 1 2 1 -1 -0 0 -0 -1 -0 -1 -0
3 1 -0 -1 1 -2 -2 -3 -2 3 8 3 2 0 -2 0 1 1 -1 0 1 -1 0 -0 3 -1 -1 0 -0 -0 0 -0 -2 -1 -3 -1 2 1 1 -0 1 -1 0 0
0 3 -3 -0 1 1 -4 12 2 7 -0 3 1 1 0 -1 2 1 2 1 -0 0 -3 3 1 -2 -1 0 -1 0 -1 -1 -1 -5 -9 -5 -4 0 -0 -1 0 -0 0 -0
0 2 2 3 3 -3 5 2 1 1 2 1 -4 -2 -1 -3 -0 -1 -1 -1 -0 1 0 1 -0 1 0 -0 -1 -0 -1 1 1 1 -1 0 -0 -2 -2 -2 0 -0 0 -1
1 0 -2 2 5 3 4 -1 2 1 -3 2 1 -0 -2 2 0 0 2 -0 1 -1 -0 2 0 1 -0 -0 -1 -0 -0 -1 -1 1 -0 -0 0 1 -0 -0 0 0 0 -0
-1 4 2 4 -2 3 3 0 2 1 0 1 1 0 0 1 -0 -0 0 2 -1 -0 2 -1 -1 -0 -1 -0 -0 0 0 1 1 1 1 2 2 1 2 2 2 -0 -0 1
2 2 -1 0 1 -0 0 -0 -0 -0 0 0 0 -0 -1 0 1 -0 2 -1 0 1 0 -3 -0 -1 1 -0 -1 -1 0 -1 -1 -0 2 2 1 1 1 1 -1 1 1 1
2 4 -1 0 1 -0 -0 -0 -1 -0 1 0 -1 -0 0 0 -0 0 -0 2 -1 -2 -3 -0 1 1 1 0 -1 -1 -0 1 2 2 1 -0 -2 -1 1 1 1 2 2 0
1 2 1 -1 0 -1 0 1 0 -0 -1 -0 1 -0 -0 -1 -0 1 -2 1 -3 -4 -0 0 0 0 -1 -1 -1 -1 -0 -0 0 -1 -1 -1 -0 1 1 2 1 2 0 1
2 -2 0 0 1 1 1 2 3 1 -2 -0 -0 -0 -5 -0 1 0 -1 -1 -0 -2 -1 0 0 -0 -1 -1 -1 -1 -1 0 1 0 1 2 2 2 2 1 -2 -1 -0 1
Height
1478 1471 1465 1458 1451 1445 1440 1438 1438 1432 1430 1430 1428 1427 1421 1419 1413 1411 1411 1410 1409 1413 1414 1419 1422 1425 1423 1424 1424 1433 1436 1447 1453 1457 1454 1454 1456 1462 1466 1481 1488 1496 1501 1472
1477 1471 1465 1458 1453 1447 1444 1442 1438 1434 1431 1439 1432 1425 1423 1421 1416 1413 1410 1408 1410 1411 1416 1421 1423 1426 1426 1426 1426 1433 1436 1454 1456 1460 1458 1457 1457 1460 1463 1470 1478 1496 1487 1464
1477 1471 1465 1459 1454 1449 1446 1445 1444 1437 1433 1434 1434 1431 1425 1420 1416 1414 1413 1412 1411 1415 1421 1421 1425 1428 1429 1428 1429 1430 1432 1447 1452 1462 1455 1456 1460 1458 1461 1466 1482 1479 1479 1459
1477 1472 1466 1460 1455 1451 1449 1449 1450 1447 1442 1431 1431 1429 1427 1423 1416 1415 1414 1415 1416 1418 1423 1425 1429 1429 1430 1431 1432 1433 1436 1449 1447 1448 1449 1451 1453 1455 1459 1464 1464 1468 1458 1462
1477 1472 1467 1462 1457 1454 1453 1453 1452 1448 1443 1437 1431 1426 1424 1420 1420 1420 1421 1422 1421 1419 1422 1424 1427 1427 1431 1433 1436 1437 1441 1453 1450 1452 1451 1452 1453 1452 1454 1457 1457 1458 1456 1451
1477 1473 1468 1464 1459 1457 1456 1456 1454 1452 1443 1440 1436 1433 1429 1427 1424 1425 1424 1424 1423 1425 1428 1425 1425 1426 1429 1431 1436 1441 1444 1450 1455 1466 1454 1452 1456 1447 1449 1451 1449 1448 1457 1441
1476 1473 1470 1466 1462 1460 1460 1458 1456 1454 1447 1444 1442 1437 1431 1430 1427 1427 1428 1426 1427 1432 1429 1429 1429 1431 1433 1435 1437 1438 1444 1446 1454 1461 1455 1461 1439 1436 1437 1441 1439 1441 1439 1436
1475 1473 1471 1468 1464 1462 1460 1459 1459 1457 1452 1449 1443 1440 1436 1432 1431 1431 1431 1431 1431 1430 1430 1434 1436 1438 1438 1441 1443 1441 1440 1448 1457 1465 1464 1449 1432 1436 1437 1436 1432 1432 1436 1432
1474 1472 1469 1468 1465 1462 1461 1460 1459 1458 1456 1451 1449 1444 1441 1439 1437 1434 1433 1433 1431 1431 1434 1437 1438 1447 1440 1444 1445 1445 1446 1448 1458 1466 1462 1455 1436 1434 1433 1433 1438 1430 1431 1430
1471 1470 1468 1466 1465 1463 1461 1459 1459 1458 1455 1450 1448 1445 1443 1440 1439 1438 1436 1434 1433 1433 1439 1446 1449 1445 1441 1449 1448 1446 1451 1451 1456 1457 1463 1449 1435 1432 1431 1437 1442 1430 1430 1428
1468 1466 1465 1464 1463 1462 1460 1459 1458 1457 1453 1448 1446 1445 1443 1441 1440 1440 1438 1439 1437 1437 1443 1446 1445 1443 1446 1447 1447 1448 1447 1452 1453 1450 1455 1462 1431 1433 1434 1433 1430 1430 1428 1425
1465 1464 1462 1461 1460 1459 1458 1457 1456 1456 1454 1448 1445 1441 1440 1441 1441 1441 1439 1439 1438 1438 1443 1446 1446 1444 1447 1448 1446 1446 1449 1444 1449 1449 1445 1430 1430 1429 1429 1429 1429 1426 1425 1424
1462 1460 1459 1458 1457 1456 1455 1453 1454 1454 1452 1443 1440 1435 1436 1436 1437 1440 1441 1439 1438 1438 1438 1441 1444 1444 1447 1443 1439 1443 1440 1438 1441 1439 1429 1428 1426 1426 1425 1424 1424 1424 1423 1421
1459 1457 1455 1454 1453 1452 1452 1450 1451 1452 1453 1446 1435 1433 1434 1434 1435 1437 1438 1439 1439 1439 1439 1439 1439 1439 1442 1443 1442 1441 1437 1437 1435 1436 1428 1424 1422 1424 1423 1422 1423 1422 1421 1419
1455 1452 1450 1449 1448 1447 1446 1445 1445 1448 1452 1444 1434 1431 1431 1432 1433 1435 1436 1437 1438 1438 1439 1439 1439 1438 1439 1440 1441 1439 1431 1431 1435 1432 1425 1426 1422 1423 1423 1422 1421 1421 1419 1418
1450 1447 1445 1443 1442 1443 1441 1442 1438 1441 1445 1446 1435 1429 1428 1430 1431 1432 1434 1435 1436 1437 1436 1434 1434 1434 1437 1438 1435 1429 1428 1428 1428 1426 1424 1423 1421 1420 1420 1419 1419 1418 1417 1416
1445 1442 1439 1436 1435 1437 1438 1439 1436 1437 1443 1443 1435 1428 1427 1428 1429 1430 1431 1433 1434 1435 1431 1431 1430 1432 1434 1431 1429 1426 1426 1425 1425 1424 1422 1420 1420 1419 1418 1417 1416 1415 1415 1414
1440 1437 1434 1431 1428 1432 1434 1435 1436 1439 1441 1438 1432 1427 1426 1426 1427 1428 1430 1431 1431 1431 1429 1429 1427 1428 1428 1424 1423 1424 1424 1423 1421 1422 1421 1421 1419 1417 1416 1415 1414 1413 1413 1412
1437 1435 1434 1432 1431 1431 1432 1433 1433 1435 1439 1433 1428 1424 1423 1424 1424 1426 1428 1429 1428 1428 1425 1424 1425 1420 1419 1420 1422 1422 1421 1422 1420 1417 1416 1416 1415 1414 1413 1412 1411 1410 1410 1410
1435 1433 1433 1431 1430 1429 1430 1432 1432 1434 1433 1430 1426 1423 1421 1423 1421 1424 1426 1425 1426 1425 1422 1421 1421 1417 1420 1421 1421 1420 1419 1419 1417 1415 1412 1411 1410 1411 1410 1409 1408 1407 1406 1406
1434 1432 1429 1428 1427 1428 1427 1426 1427 1427 1425 1423 1421 1421 1420 1421 1421 1423 1424 1423 1425 1422 1420 1419 1415 1414 1420 1420 1419 1418 1417 1416 1415 1414 1412 1411 1409 1406 1405 1403 1403 1402 1402 1402
1434 1432 1429 1427 1427 1425 1424 1421 1419 1419 1418 1415 1415 1415 1418 1419 1419 1420 1421 1421 1424 1420 1420 1418 1411 1418 1419 1418 1417 1416 1415 1413 1411 1410 1408 1406 1404 1402 1400 1399 1398 1398 1399 1399
1431 1430 1427 1424 1423 1421 1415 1413 1413 1413 1412 1413 1414 1414 1415 1416 1418 1419 1420 1419 1416 1419 1416 1412 1415 1417 1417 1417 1415 1414 1413 1411 1408 1407 1405 1403 1401 1399 1397 1396 1396 1396 1396 1397
1432 1429 1424 1421 1417 1415 1413 1414 1414 1414 1413 1413 1414 1414 1415 1416 1417 1417 1416 1416 1417 1417 1417 1413 1413 1415 1416 1416 1415 1413 1412 1410 1407 1405 1403 1401 1399 1397 1396 1395 1394 1395 1395 1395
1431 1428 1421 1418 1416 1414 1414 1413 1413 1413 1413 1414 1415 1415 1416 1416 1416 1416 1416 1414 1416 1409 1406 1409 1411 1413 1414 1414 1414 1413 1411 1409 1407 1404 1401 1398 1397 1396 1396 1395 1394 1394 1394 1394
1429 1425 1421 1418 1417 1414 1414 1413 1413 1413 1414 1414 1415 1416 1416 1415 1414 1414 1411 1411 1412 1408 1409 1409 1411 1413 1414 1414 1414 1413 1412 1409 1407 1404 1403 1401 1398 1396 1395 1393 1393 1394 1394 1394
1425 1420 1419 1419 1418 1416 1414 1414 1413 1413 1415 1416 1415 1417 1413 1416 1413 1412 1407 1405 1406 1406 1408 1410 1412 1413 1414 1414 1414 1413 1411 1409 1407 1406 1404 1402 1400 1398 1397 1395 1394 1393 1393 1393